{"data":{"norad_id":39416,"epoch":"2026-05-25T03:26:22.009056Z","epoch_age_seconds":72828,"freshness":"FRESH","line1":"1 39416U 13066A   26145.14331029  .00001132  00000+0  11761-3 0  9995","line2":"2 39416  97.7696  98.6973 0034349 288.7157  71.0335 14.91503708677795","mean_motion":14.91503708,"eccentricity":0.0034349,"inclination_deg":97.7696,"raan_deg":98.6973,"arg_perigee_deg":288.7157,"mean_anomaly_deg":71.0335,"bstar":0.00011761,"rev_number":67779,"period_min":96.546860210689,"perigee_km":569.30010344116,"apogee_km":617.19211111152,"semimajor_km":6971.3831072763,"source":"CELESTRAK","updated_at":"2026-05-25T13:38:24.895839Z"}}